Kaltag, AK

4:33 PM AKDT on August 25, 2016 (GMT -0800)
Kaltag

Weather History for PAKV - November, 2012

Change the Weather History Date:

Thursday, November 1, 2012

  Actual Average (PAGA) Record (PAGA)
Temperature  
Mean Temperature 20 °F -  
Max Temperature 25 °F 15 °F 40 °F (1954)
Min Temperature 14 °F 3 °F -32 °F (1975)
Degree Days  
Heating Degree Days 46    
Moisture  
Dew Point 4 °F    
Average Humidity 47    
Maximum Humidity 62    
Minimum Humidity 36    
Precipitation  
Precipitation 0.00 in - - ()
Sea Level Pressure  
Sea Level Pressure 30.22 in    
Wind  
Wind Speed 15 mph (NE)    
Max Wind Speed 20 mph    
Max Gust Speed 30 mph    
Visibility 9 miles    
Events      
Averages and records for this station are not official NWS values.
T = Trace of Precipitation, MM = Missing Value Source: NWS Daily Summary

Daily Weather History Graph

Daily Weather History Graph

Search for Another Location

Airport or City:

Trip Planner

Search our weather history database for the weather conditions in past years. The results will help you decide how hot, cold, wet, or windy it might be!

Date:

Astronomy

Nov. 01, 2012 Rise Set
Actual Time 10:21 AM AKDT 6:14 PM AKDT
Civil Twilight 9:27 AM AKDT 7:08 PM AKDT
Nautical Twilight 8:29 AM AKDT 8:05 PM AKDT
Astronomical Twilight 7:34 AM AKDT 9:01 PM AKDT
Moon 7:19 PM AKDT (11/1) 2:04 PM AKDT (11/1)
Length of Visible Light 9h 40m
Length of Day
7h 52m
Waning Gibbous, 92% of the Moon is Illuminated
Nov 1
Waning Gibbous
Nov 6
Last Quarter
Nov 13
New
Nov 20
First Quarter
Nov 28
Full

Hourly Weather History & Observations

Time (AKDT) Temp. Windchill Dew Point Humidity Pressure Visibility Wind Dir Wind Speed Gust Speed Precip Events Conditions
12:53 AM 25.0 °F 12.2 °F 3.0 °F 39% 30.21 in 9.0 mi NE 16.1 mph 23.0 mph N/A   Clear
1:30 AM 24.8 °F 10.7 °F 1.4 °F 36% 30.20 in 7.0 mi NE 19.6 mph 27.6 mph N/A   Partly Cloudy
1:53 AM 24.1 °F 9.8 °F 3.0 °F 40% 30.21 in 8.0 mi NE 19.6 mph 26.5 mph N/A   Clear
2:24 AM 24.8 °F 10.7 °F 3.2 °F 40% 30.19 in 6.0 mi NE 19.6 mph 25.3 mph N/A   Haze
2:53 AM 24.1 °F 10.1 °F 1.9 °F 38% 30.21 in 9.0 mi NNE 18.4 mph 24.2 mph N/A   Clear
3:53 AM 24.1 °F 12.0 °F 3.9 °F 42% 30.21 in 9.0 mi NE 13.8 mph 24.2 mph N/A   Clear
5:53 AM 24.1 °F 11.5 °F 3.9 °F 42% 30.21 in 8.0 mi NE 15.0 mph 24.2 mph N/A   Clear
6:24 AM 24.8 °F 10.7 °F 3.2 °F 40% 30.19 in 8.0 mi NE 19.6 mph 29.9 mph N/A   Partly Cloudy
6:53 AM 24.1 °F 11.5 °F 3.9 °F 42% 30.20 in 10.0 mi NE 15.0 mph 27.6 mph N/A   Clear
7:53 AM 23.0 °F 9.6 °F 3.9 °F 44% 30.20 in 9.0 mi NE 16.1 mph 28.8 mph N/A   Clear
8:53 AM 23.0 °F 9.6 °F 3.0 °F 42% 30.22 in 10.0 mi NE 16.1 mph 25.3 mph N/A   Clear
9:53 AM 21.9 °F 8.2 °F 3.0 °F 44% 30.23 in 10.0 mi NE 16.1 mph 26.5 mph N/A   Clear
10:53 AM 21.9 °F 8.2 °F 3.0 °F 44% 30.25 in 10.0 mi NE 16.1 mph 20.7 mph N/A   Clear
11:53 AM 21.9 °F 10.4 °F 3.9 °F 46% 30.26 in 10.0 mi NE 11.5 mph 18.4 mph N/A   Clear
12:53 PM 23.0 °F 10.6 °F 5.0 °F 46% 30.27 in 10.0 mi NE 13.8 mph 21.9 mph N/A   Clear
2:53 PM 24.1 °F 11.5 °F 7.0 °F 48% 30.25 in 8.0 mi NE 15.0 mph 24.2 mph N/A   Clear
3:53 PM 24.1 °F 13.7 °F 8.1 °F 51% 30.23 in 10.0 mi NE 10.4 mph - N/A   Clear
4:53 PM 23.0 °F 12.4 °F 7.0 °F 50% 30.23 in 10.0 mi NE 10.4 mph - N/A   Clear
5:53 PM 21.0 °F 12.4 °F 7.0 °F 55% 30.23 in 10.0 mi NE 6.9 mph - N/A   Clear
6:53 PM 19.0 °F 10.0 °F 6.1 °F 57% 30.24 in 10.0 mi NE 6.9 mph - N/A   Clear
7:53 PM 19.0 °F 9.0 °F 5.0 °F 54% 30.23 in 10.0 mi NNE 8.1 mph - N/A   Clear
8:53 PM 19.0 °F 12.3 °F 6.1 °F 57% 30.23 in 10.0 mi NE 4.6 mph - N/A   Clear
9:53 PM 17.1 °F 10.0 °F 5.0 °F 59% 30.22 in 10.0 mi NNE 4.6 mph - N/A   Clear
10:53 PM 14.0 °F - 3.0 °F 62% 30.20 in 10.0 mi Calm Calm - N/A   Clear
11:53 PM 17.1 °F 8.7 °F 3.0 °F 54% 30.19 in 10.0 mi NNE 5.8 mph - N/A   Clear